Time,TemperatureF,DewpointF,PressureIn,WindDirection,WindDirectionDegrees,WindSpeedMPH,WindSpeedGustMPH,Humidity,HourlyPrecipIn,Conditions,Clouds,dailyrainin,SoftwareType,DateUTC
2013-03-12 00:00:00,52.0,-99.9,-100.00,North,-999,-999.0,-999.0,-999,0.07,,,0.10,,2013-03-12 04:00:00,
2013-03-12 00:53:00,52.0,-99.9,-100.00,North,-999,-999.0,-999.0,-999,0.07,,,0.10,,2013-03-12 04:53:00,
2013-03-12 01:00:00,50.0,-99.9,-100.00,North,-999,-999.0,-999.0,-999,0.10,,,0.20,,2013-03-12 05:00:00,
2013-03-12 01:52:00,50.0,-99.9,-100.00,North,-999,-999.0,-999.0,-999,0.10,,,0.20,,2013-03-12 05:52:00,
2013-03-12 02:00:00,47.0,-99.9,-100.00,North,-999,-999.0,-999.0,-999,0.07,,,0.27,,2013-03-12 06:00:00,
2013-03-12 02:52:00,47.0,-99.9,-100.00,North,-999,-999.0,-999.0,-999,0.07,,,0.27,,2013-03-12 06:52:00,
2013-03-12 03:00:00,45.0,-99.9,-100.00,North,-999,-999.0,-999.0,-999,0.00,,,0.27,,2013-03-12 07:00:00,
2013-03-12 03:53:00,45.0,-99.9,-100.00,North,-999,-999.0,-999.0,-999,0.00,,,0.27,,2013-03-12 07:53:00,
2013-03-12 04:00:00,45.0,-99.9,-100.00,North,-999,-999.0,-999.0,-999,0.00,,,0.27,,2013-03-12 08:00:00,
2013-03-12 04:52:00,45.0,-99.9,-100.00,North,-999,-999.0,-999.0,-999,0.00,,,0.27,,2013-03-12 08:52:00,
2013-03-12 05:00:00,43.0,-99.9,-100.00,North,-999,-999.0,-999.0,-999,0.00,,,0.27,,2013-03-12 09:00:00,
2013-03-12 05:53:00,43.0,-99.9,-100.00,North,-999,-999.0,-999.0,-999,0.00,,,0.27,,2013-03-12 09:53:00,
2013-03-12 06:00:00,42.0,-99.9,-100.00,North,-999,-999.0,-999.0,-999,0.00,,,0.27,,2013-03-12 10:00:00,
2013-03-12 07:00:00,42.0,-99.9,-100.00,North,-999,-999.0,-999.0,-999,0.02,,,0.29,,2013-03-12 11:00:00,
2013-03-12 07:53:00,42.0,-99.9,-100.00,North,-999,-999.0,-999.0,-999,0.02,,,0.29,,2013-03-12 11:53:00,
2013-03-12 08:00:00,41.0,-99.9,-100.00,North,-999,-999.0,-999.0,-999,0.00,,,0.29,,2013-03-12 12:00:00,
2013-03-12 08:52:00,41.0,-99.9,-100.00,North,-999,-999.0,-999.0,-999,0.00,,,0.29,,2013-03-12 12:52:00,
2013-03-12 09:00:00,39.0,-99.9,-100.00,North,-999,-999.0,-999.0,-999,0.01,,,0.30,,2013-03-12 13:00:00,
2013-03-12 09:53:00,39.0,-99.9,-100.00,North,-999,-999.0,-999.0,-999,0.01,,,0.30,,2013-03-12 13:53:00,
2013-03-12 10:00:00,39.0,-99.9,-100.00,North,-999,-999.0,-999.0,-999,0.00,,,0.30,,2013-03-12 14:00:00,
2013-03-12 10:54:00,39.0,-99.9,-100.00,North,-999,-999.0,-999.0,-999,0.00,,,0.30,,2013-03-12 14:54:00,
2013-03-12 11:00:00,39.0,-99.9,-100.00,North,-999,-999.0,-999.0,-999,0.00,,,0.30,,2013-03-12 15:00:00,
2013-03-12 11:54:00,39.0,-99.9,-100.00,North,-999,-999.0,-999.0,-999,0.00,,,0.30,,2013-03-12 15:54:00,
2013-03-12 12:00:00,40.0,-99.9,-100.00,North,-999,-999.0,-999.0,-999,0.00,,,0.30,,2013-03-12 16:00:00,
2013-03-12 12:53:00,40.0,-99.9,-100.00,North,-999,-999.0,-999.0,-999,0.00,,,0.30,,2013-03-12 16:53:00,
2013-03-12 13:00:00,41.0,-99.9,-100.00,North,-999,-999.0,-999.0,-999,0.00,,,0.30,,2013-03-12 17:00:00,
2013-03-12 15:00:00,41.0,-99.9,-100.00,North,-999,-999.0,-999.0,-999,0.00,,,0.30,,2013-03-12 19:00:00,
2013-03-12 15:53:00,41.0,-99.9,-100.00,North,-999,-999.0,-999.0,-999,0.00,,,0.30,,2013-03-12 19:53:00,
2013-03-12 16:00:00,41.0,-99.9,-100.00,North,-999,-999.0,-999.0,-999,0.00,,,0.30,,2013-03-12 20:00:00,
2013-03-12 16:53:00,41.0,-99.9,-100.00,North,-999,-999.0,-999.0,-999,0.00,,,0.30,,2013-03-12 20:53:00,
2013-03-12 17:00:00,41.0,-99.9,-100.00,North,-999,-999.0,-999.0,-999,0.00,,,0.30,,2013-03-12 21:00:00,
2013-03-12 17:53:00,41.0,-99.9,-100.00,North,-999,-999.0,-999.0,-999,0.00,,,0.30,,2013-03-12 21:53:00,
2013-03-12 18:00:00,40.0,-99.9,-100.00,North,-999,-999.0,-999.0,-999,0.00,,,0.30,,2013-03-12 22:00:00,
2013-03-12 18:54:00,40.0,-99.9,-100.00,North,-999,-999.0,-999.0,-999,0.00,,,0.30,,2013-03-12 22:54:00,
2013-03-12 19:53:00,40.0,-99.9,-100.00,North,-999,-999.0,-999.0,-999,0.00,,,0.30,,2013-03-12 23:53:00,
2013-03-12 20:00:00,40.0,-99.9,-100.00,North,-999,-999.0,-999.0,-999,0.00,,,0.30,,2013-03-13 00:00:00,
2013-03-12 21:00:00,38.0,-99.9,-100.00,North,-999,-999.0,-999.0,-999,0.00,,,0.30,,2013-03-13 01:00:00,
2013-03-12 22:00:00,39.0,-99.9,-100.00,North,-999,-999.0,-999.0,-999,0.00,,,0.30,,2013-03-13 02:00:00,
2013-03-12 22:53:00,39.0,-99.9,-100.00,North,-999,-999.0,-999.0,-999,0.00,,,0.30,,2013-03-13 02:53:00,
2013-03-12 23:00:00,39.0,-99.9,-100.00,North,-999,-999.0,-999.0,-999,0.00,,,0.27,,2013-03-13 03:00:00,
2013-03-12 23:53:00,39.0,-99.9,-100.00,North,-999,-999.0,-999.0,-999,0.00,,,0.27,,2013-03-13 03:53:00,